FW2359 Weather Reports


time (UTC)temp
C
wind
direction
speed
KPH
gust
KPH
rain 1hr
cm
rain 24hr
cm
rain mn
cm
humidity
%
barometer
mb
20260506200029 20 255 27.4 45.1 0.00 0.05 0.05 55 1017.9
20260506193030 19 244 32.2 54.7 0.05 0.05 0.05 56 1017.6
20260506191532 19 243 33.8 54.7 0.05 0.05 0.05 57 1017.7
20260506190032 18 253 37.0 59.5 0.05 0.05 0.05 59 1017.3
20260506184647 18 252 40.2 64.4 0.05 0.05 0.00 59 1017.3
20260506183030 18 252 32.2 57.9 0.00 0.00 0.00 60 1017.6
20260506180030 18 250 22.5 43.5 0.00 0.00 0.00 62 1018.4
20260506174606 18 240 19.3 54.7 0.00 0.00 0.00 62 1018.5
20260506173108 17 237 22.5 45.1 0.00 0.00 0.00 63 1018.2
20260506171531 17 256 27.4 45.1 0.00 0.00 0.00 64 1017.9
20260506170028 17 257 29.0 53.1 0.00 0.00 0.00 66 1017.7
20260506164530 17 253 24.1 38.6 0.00 0.00 0.00 67 1017.8
20260506163031 17 242 27.4 45.1 0.00 0.00 0.00 67 1018.2
20260506161531 16 238 27.4 43.5 0.00 0.00 0.00 68 1018.6
20260506160029 16 236 25.7 41.8 0.00 0.00 0.00 69 1018.5
20260506154531 16 235 24.1 41.8 0.00 0.00 0.00 69 1018.5
20260506153029 16 247 25.7 45.1 0.00 0.00 0.00 69 1018.3
20260506151531 16 245 22.5 38.6 0.00 0.00 0.00 69 1018.2
20260506144531 15 248 24.1 40.2 0.00 0.00 0.00 70 1018.0
20260506143029 15 248 24.1 43.5 0.00 0.00 0.00 70 1017.9
20260506141530 15 241 20.9 43.5 0.00 0.00 0.00 70 1017.9
20260506140032 15 236 17.7 33.8 0.00 0.00 0.00 71 1017.9
20260506134533 15 240 20.9 46.7 0.00 0.00 0.00 71 1017.7
20260506131532 15 236 24.1 40.2 0.00 0.00 0.00 72 1017.6
20260506130107 15 237 25.7 48.3 0.00 0.00 0.00 72 1017.4
20260506124532 15 239 27.4 48.3 0.00 0.00 0.00 72 1017.3
20260506121604 15 234 25.7 49.9 0.00 0.00 0.00 72 1017.0
20260506120030 15 238 30.6 56.3 0.00 0.00 0.00 72 1017.0
20260506114529 15 232 27.4 54.7 0.00 0.00 0.00 72 1016.9
20260506113029 15 235 22.5 46.7 0.00 0.00 0.00 72 1016.8
20260506111532 15 235 19.3 40.2 0.00 0.00 0.00 72 1016.7
20260506110029 15 237 22.5 41.8 0.00 0.00 0.00 72 1016.5
20260506104635 -17 0 0.0 0.0 0.00 0.00 0.00 100
20260506101532 15 234 16.1 29.0 0.00 0.00 0.00 74 1016.2
20260506100048 15 232 19.3 33.8 0.00 0.00 0.00 74 1016.1
20260506094645 15 239 17.7 35.4 0.00 0.00 0.00 74 1016.0
20260506091529 15 242 22.5 38.6 0.00 0.00 0.00 74 1015.8
20260506090030 15 240 24.1 45.1 0.00 0.00 0.00 74 1015.6
20260506084607 15 235 20.9 37.0 0.00 0.00 0.00 75 1015.7
20260506083030 15 241 19.3 40.2 0.00 0.00 0.00 75 1015.5
20260506081528 15 242 20.9 43.5 0.00 0.00 0.00 75 1015.5
20260506073033 15 241 14.5 38.6 0.00 0.00 0.00 74 1015.4
20260506071528 15 242 16.1 32.2 0.00 0.00 0.00 74 1015.3
20260506044530 15 273 16.1 24.1 0.00 0.00 0.00 75 1014.2
20260506034529 15 276 11.3 24.1 0.00 0.00 0.00 71 1013.4
20260506033106 16 267 11.3 22.5 0.00 0.00 0.00 70 1013.2
20260506031529 16 270 11.3 24.1 0.00 0.00 0.00 69 1013.1
20260506030033 17 267 11.3 22.5 0.00 0.00 0.00 67 1012.9
20260506024543 17 268 11.3 25.7 0.00 0.00 0.00 65 1012.7
20260506021532 18 262 14.5 30.6 0.00 0.00 0.00 62 1012.6
20260506020030 19 268 12.9 22.5 0.00 0.00 0.00 60 1012.5
20260506014531 20 269 12.9 24.1 0.00 0.00 0.00 57 1012.5
20260506013029 21 254 8.0 25.7 0.00 0.00 0.00 56 1012.4
20260506011606 21 251 11.3 29.0 0.00 0.00 0.00 55 1012.3
20260506010031 21 251 11.3 33.8 0.00 0.00 0.00 55 1012.3
20260506003029 21 262 16.1 29.0 0.00 0.00 0.00 56 1012.2
20260506000032 21 260 17.7 32.2 0.00 0.00 0.00 57 1012.3
20260505234529 21 265 19.3 33.8 0.00 0.00 0.00 56 1012.3
20260505233032 21 262 19.3 32.2 0.00 0.00 0.00 56 1012.5
20260505223029 21 271 17.7 33.8 0.00 0.00 0.00 56 1012.8
20260505221532 21 263 19.3 37.0 0.00 0.00 0.00 55 1013.0
20260505220030 21 261 17.7 30.6 0.00 0.00 0.00 56 1013.1
20260505214533 21 265 16.1 27.4 0.00 0.00 0.00 56 1013.2
20260505213033 21 265 19.3 35.4 0.00 0.00 0.00 56 1013.3
20260505211531 21 261 17.7 35.4 0.00 0.00 0.00 56 1013.4
20260505210031 20 267 16.1 30.6 0.00 0.00 0.00 56 1013.5
20260505204607 21 266 16.1 32.2 0.00 0.00 0.00 56 1013.6
20260505203033 21 266 16.1 29.0 0.00 0.00 0.00 56 1013.7